IRIDIUM 914

Satellite information

Favourite Embed

Satellite Type and Status

PAYLOADIN ORBIT

Key statistics

Satellite IRIDIUM 914 at a glance.

Uptime

10306

Days in orbit

Revolutions

≈ 14.4

Per day

Orbit

LEO

Low Earth Orbit

Inclination

86.4

Latest

Satellite identification and parameters

Extended collection of information and parameters for IRIDIUM 914.

Object identification

Identified? True

Debris? False

Object name: IRIDIUM 914

International designator: 1997-030A

Object number (NORAD): 24836

Object ID (CCSDS): 24836

Country: UNITED STATES OF AMERICA (US)

Current information (Y/N): Y

RCS size: LARGE

Orbital parameters

Period: 99.935 minutes

Inclination: 86.399 deg

SMA: 7133.55 km

Apoapsis: 756.683 km

Periapsis: 754.146 km

RAAN: 149.0302 deg

Eccentricy: 0.00017784

Argument of periapsis: 38.7377 deg

Mean anomaly: 321.395 deg

Mean motion: 14.40934445 rev/day

Mean motion (dot): 0.00000699 rev/day2

B* drag term: 0.0002118693 1/REarth

Two-line elements (TLE)

Creation date: Sept. 4, 2025, 10:13 a.m.

Reference frame: TEME

Reference center: EARTH

Epoch: Sept. 4, 2025, 4:37 a.m. UTC

TLE line 0: 0 IRIDIUM 914

TLE line 1: 1 24836U 97030A 25247.19266250 .00000699 00000-0 21187-3 0 9999

TLE line 2: 2 24836 86.3990 149.0302 0001778 38.7377 321.3950 14.40934445618508

Live tracking on map

Real-time ground track for satellite IRIDIUM 914.

In-orbit conjunctions

A list of the most updated potential collisions computed for object IRIDIUM 914.

Target Orbit TCA Probability of collision Miss distance Type
CZ-6A DEB LEO 2025-08-24 10:45:38 0.0002994546 411.0 (m) DEBRIS
CZ-4 DEB SSO 2025-06-03 22:57:15 0.0009432369 755.0 (m) DEBRIS
FENGYUN 1C DEB SSO 2024-12-15 13:52:33 0.0001257845 102.0 (m) DEBRIS
FENGYUN 1C DEB SSO 2024-12-15 05:42:10 0.0001379058 321.0 (m) DEBRIS
COSMOS 2251 DEB LEO 2024-10-09 05:22:00 0.0001782552 727.0 (m) DEBRIS

Associated space launch

Iridium provides global mobile telecommunications services using a constellation of 66 low earth orbit satellites in a 86.4° inclined orbit. Although 77 satellites were originally envisioned for the system and spawned the name based on the 77th element in the periodic table, the system has been scaled back. Motorola's Satellite Communications Group designed and manufactured the Iridium satellites with Lockheed Martin providing the LM-700A spacecraft buses.

IRIDIUM 914 was lifted into orbit during the mission ‘Proton-K/17S40 | Iridium 09 to 14 & Iridium 16’, on board a Proton-K/17S40 space rocket.

The launch took place on June 18, 1997, 2:02 p.m. from 81/23 (81L).

For more information about the launch, click the button.

Launch to space Proton-K/17S40 | Iridium 09 to 14 & Iridium 16
Proton-K/17S40 | Iridium 09 to 14 & Iridium 16

Agency: N/A

Status: Launch Successful

Launch date: June 18, 1997, 2:02 p.m. UTC

Rocket: Proton-K/17S40

Launch pad: 81/23 (81L)

Location: Baikonur Cosmodrome, Republic of Kazakhstan

...

Latest news about this satellite

There are no fresh news available about this satellite. Check back as we update our databases every day.


Newsletter sign-up

Weekly statistics, charts and insights to help you stay on top of the space industry.